Volver al catálogo

SCOUT B DEB

LostUNKNOWN
NORAD 29170·DEBRIS·🇺🇸 United States

Lanzado Aug 10, 1965 desde Wallops Flight Facility

Loading…

Próximos Pases (próximas 24 horas)

TLE

EnvejeciendoSource: Space-Track

Época: Aug 5, 2026, 03:17 UTC

1 29170U 65063U   26217.13711593  .00000198  00000-0  14827-2 0  9999
2 29170  69.2191 177.2467 0748359 315.2159  54.5570 11.90447128 88138

Sigue SCOUT B DEB en tiempo real con AllMySat

Download on the App Store